Flag for Namibia Weather past 2 weeks in Windhoek, Namibia

Now
45 °F

Quite cool.


Feels Like: 45 °F
Forecast: 31 / 61 °F
Wind: 2 mph from Southwest

Location: Windhoek

Current Time: Jul 25, 2014 at 9:43:35 PM

Latest Report: Jul 25, 2014 at 9:00 PM


Visibility: N/A

Pressure: 30.24 "Hg

Humidity: 53%

Dew point: 28 °F

Location of WindhoekLocation

Historic Weather in Windhoek — Graph

°F

Windhoek temperature yesterday

Maximum temperature yesterday: 79 °F (at 3:00 PM)
Minimum temperature yesterday: 48 °F (at 6:00 AM)
Average temperature yesterday: 63 °F

Past Weeks' High & Low Weather Summary

 TemperatureHumidityPressure
High84 °F (Jul 14, 1:00 PM)61% (Jul 25, 6:00 AM)30.45 "Hg (Jul 25, 6:00 AM)
Low36 °F (Jul 19, 6:00 AM)5% (Jul 25, 3:00 PM)30.15 "Hg (Jul 18, 2:00 PM)
Average61 °F27%30.31 "Hg
* Reported Jul 10 8:00 PM — Jul 25 8:00 PM, Windhoek, Weather by CustomWeather, © 2014

Note: Actual official high and low records may vary slightly from our data, if they occured in-between our weather recording intervals... More about our weather records

Advertising

Windhoek weather history for previous 24 hours

 ConditionsComfort  
Time TempWeatherWind HumidityBarometerVisibility
8:00 PM
Jul 25
48 °FCool.2 mph43%30.24 "HgN/A
7:00 PM50 °FClear.3 mph40%30.21 "Hg10 mi
6:00 PM55 °FClear.7 mph33%30.18 "Hg10 mi
5:00 PM61 °FClear.9 mph22%30.15 "Hg10 mi
4:00 PM64 °FSunny.12 mph18%30.15 "Hg10 mi
3:00 PM66 °FSunny.12 mph5%30.15 "Hg10 mi
2:00 PM68 °FSunny.9 mph13%30.15 "Hg10 mi
1:00 PM68 °FSunny.13 mph11%30.18 "Hg10 mi
12:00 PM66 °FSunny.9 mph14%30.21 "Hg10 mi
11:00 AM63 °FSunny.5 mph19%30.21 "Hg10 mi
10:00 AM59 °FSunny.3 mph31%30.24 "Hg10 mi
9:00 AM55 °FSunny.2 mph41%30.24 "Hg10 mi
8:00 AM48 °FSunny.3 mph50%30.24 "Hg10 mi
7:00 AM43 °FSunny.No wind57%30.21 "Hg10 mi
6:00 AM41 °FSunny.5 mph61%30.21 "Hg10 mi
5:00 AM45 °FQuite cool.2 mph53%30.21 "HgN/A
4:00 AM45 °FQuite cool.5 mph53%30.18 "HgN/A
3:00 AM48 °FCool.No wind50%30.21 "HgN/A
2:00 AM46 °FCool.3 mph50%30.21 "HgN/A
1:00 AM48 °FCool.3 mph46%30.21 "HgN/A
12:00 AM52 °FCool.3 mph41%30.21 "HgN/A
11:00 PM
Jul 24
54 °FCool.3 mph38%30.27 "HgN/A
10:00 PM55 °FRefreshingly cool.3 mph36%30.24 "HgN/A
9:00 PM61 °FRefreshingly cool.1 mph31%30.27 "HgN/A
Weather by CustomWeather, © 2014

See weather overviewHow to use our weather pages